ChaudfonTRAIL
ChaudfonTRAIL 28/05/2017 - 26 km
Mise à jour le : 29/05/2017 à 16:33
Classement définitif, aucune correction possible
Place Nom Prénom Dossard Temps Vitesse Allure Place. Cat. Catégorie
1 PIERRON OLIVIER 1001 1:58:26 13,17 4:33 1 Homme
2 WATERVAL CLAUDE 1169 2:09:15 12,07 4:58 2 Homme
3 WINKIN CHRISTOPHE 1096 2:11:22 11,87 5:03 3 Homme
4 DE COSTER MATTHIEU 1166 2:13:43 11,67 5:08 4 Homme
5 ETIENNE FABRICE 1034 2:16:08 11,46 5:14 5 Homme
6 DEVOS JIMMY 1028 2:20:46 11,08 5:24 6 Homme
7 GRASSO SANDRO 1123 2:21:35 11,02 5:26 7 Homme
8 ANCIAUX BENJAMIN 1098 2:21:35 11,02 5:26 8 Homme
9 BURM TONY 1012 2:22:13 10,97 5:28 9 Homme
10 BLINDEMAN NIELS 1008 2:22:45 10,93 5:29 10 Homme
11 FELLER MAXIME 1037 2:22:47 10,92 5:29 11 Homme
12 NIJS CHRIS 1175 2:22:52 10,92 5:29 12 Homme
13 MACHIELS OLIVIER 1135 2:24:39 10,78 5:33 13 Homme
14 GARCIA FABRICE 1039 2:25:31 10,72 5:35 14 Homme
15 LEJEUNE PIERRE 1057 2:26:58 10,61 5:39 15 Homme
16 ORISTIL ALEXANDRE 1143 2:27:26 10,58 5:40 16 Homme
17 NYSSEN SÉBASTIEN 1140 2:27:28 10,58 5:40 17 Homme
18 CORDÓN BARRIS LLUÍS 1109 2:28:08 10,53 5:41 18 Homme
19 LOMBA RENAUD 1060 2:29:49 10,41 5:45 19 Homme
20 BALANCIER SARAH 1168 2:29:50 10,41 5:45 1 Femme
21 LEROY DAGOBERT 1058 2:29:50 10,41 5:45 20 Homme
22 PACKBIER ROMAN 1066 2:31:10 10,32 5:48 21 Homme
23 ANTHONIS LORIN 1099 2:32:40 10,22 5:52 22 Homme
24 CSIK NICOLAS 1110 2:33:37 10,15 5:54 23 Homme
25 EISENHUTH PIERRE 1120 2:35:12 10,05 5:58 24 Homme
26 VAN MEULDER NICO 1086 2:39:43 9,77 6:08 25 Homme
27 DEBATY CHRISTOPHE 1114 2:39:58 9,75 6:09 26 Homme
28 CARLIER FRANÇOIS 1013 2:40:03 9,75 6:09 27 Homme
29 SIEBENBOUR MICHEL 2110 2:40:35 9,71 6:10 28 Homme
30 DELVAUX GARY 1171 2:40:45 9,70 6:10 29 Homme
31 LÉTÉ PASCAL 1132 2:41:02 9,69 6:11 30 Homme
32 JANDRAIN FRANÇOIS 1165 2:41:07 9,68 6:11 31 Homme
33 DISPAS CÉLINE 1029 2:41:15 9,67 6:12 2 Femme
34 MAQUINAY ANDRÈ 1172 2:41:17 9,67 6:12 32 Homme
35 WILKIN DENIS 1158 2:44:36 9,48 6:19 33 Homme
36 MAES JORIS 1061 2:44:45 9,47 6:20 34 Homme
37 GEBRUERS DANIEL 1041 2:45:32 9,42 6:22 35 Homme
38 DE KIMPE SJEF 1024 2:46:45 9,36 6:24 36 Homme
39 SCHMETZ BERNARD 1074 2:47:09 9,33 6:25 37 Homme
40 VAESSEN BORIS 1080 2:47:36 9,31 6:26 38 Homme
41 VANSPAUWEN FRANK 1153 2:47:37 9,31 6:26 39 Homme
42 GEMIN BENOIT 1042 2:47:58 9,29 6:27 40 Homme
43 LENAERTS BEN 1170 2:48:52 9,24 6:29 41 Homme
44 BRASSEUR JONATHAN 1009 2:51:40 9,09 6:36 42 Homme
45 BROECKHOVE WOUTER 1010 2:53:13 9,01 6:39 43 Homme
46 BOONE BJORN 1106 2:53:13 9,01 6:39 44 Homme
47 ROUBROEKS ROEL 1146 2:54:18 8,95 6:42 45 Homme
48 MOYEN CÉDRIC 1063 2:55:47 8,87 6:45 46 Homme
49 HEINE LAURENT 1048 2:56:22 8,84 6:47 47 Homme
50 DURIEUX RODOLPHE 1999 2:57:26 8,79 6:49 48 Homme
51 CLAVREUL AXELLE 1014 2:57:42 8,78 6:50 3 Femme
52 GRENADE FRANÇOIS 1044 2:57:42 8,78 6:50 49 Homme
53 BERWART GILLES 1103 2:57:42 8,78 6:50 50 Homme
54 BASTIN YOANN 1100 2:57:42 8,78 6:50 51 Homme
55 LIEGEOIS MARC 1133 2:59:55 8,67 6:55 52 Homme
56 WILLEM BERNARD 1095 3:00:28 8,64 6:56 53 Homme
57 BAETENS GEERT 1167 3:01:15 8,61 6:58 54 Homme
58 RORIVE LAURENT 1072 3:01:17 8,60 6:58 55 Homme
59 GOMBOSO MARC 1043 3:03:09 8,52 7:02 56 Homme
60 DEWIT RAYMOND 2118 3:05:46 8,40 7:08 57 Homme
61 JORIS SABINE 1127 3:05:57 8,39 7:09 4 Femme
62 DESSAMBRE NICOLAS 1117 3:06:00 8,39 7:09 58 Homme
63 LEUPE JEAN-LOUIS 1173 3:06:02 8,39 7:09 59 Homme
64 SARLET JULIE 1073 3:08:12 8,29 7:14 5 Femme
65 VAN DEN BULCKE STEVEN 1082 3:09:42 8,22 7:17 60 Homme
66 JOASSART MARTIN 1050 3:09:44 8,22 7:17 61 Homme
67 VAN MEULDER TIBO 1087 3:09:45 8,22 7:17 62 Homme
68 NYSSEN SYLVIE 1065 3:11:40 8,14 7:22 6 Femme
69 TILKIN GIL 1150 3:13:28 8,06 7:26 63 Homme
70 WEGNEZ STEPHAN 1094 3:13:28 8,06 7:26 64 Homme
71 VAN DEN ESSEN TON 1083 3:13:33 8,06 7:26 65 Homme
72 DONNAY FRANÇOIS 1030 3:13:40 8,05 7:26 66 Homme
73 BOLAND ALAIN 1105 3:15:50 7,97 7:31 67 Homme
74 BIGOT PASCAL 1104 3:16:29 7,94 7:33 68 Homme
75 DELVIGNE MARC 1115 3:16:40 7,93 7:33 69 Homme
76 JOOST JONGEN 1051 3:18:13 7,87 7:37 70 Homme
77 MONTERO PIERRE 1062 3:18:26 7,86 7:37 71 Homme
78 BIDOUL GIL 1007 3:19:04 7,84 7:39 72 Homme
79 LAVIGNE MICHEL 1056 3:20:17 7,79 7:42 73 Homme
80 GRISARD PIERRE 1045 3:20:52 7,77 7:43 74 Homme
81 HAESENNE THIERRY 1047 3:21:31 7,74 7:45 75 Homme
82 MAX BENJAMIN 1136 3:23:09 7,68 7:48 76 Homme
83 GARIBALDI ANGELO 1040 3:26:07 7,57 7:55 77 Homme
84 KENENS BENOIT 1128 3:26:07 7,57 7:55 78 Homme
85 GRZESINSKI BERNARD 1046 3:26:22 7,56 7:56 79 Homme
86 WARNOTTE MARIE 1157 3:28:27 7,48 8:01 7 Femme
87 CHARLIER JÉRÔME 1108 3:28:27 7,48 8:01 80 Homme
88 SEYNAEVE LAURENT 1076 3:32:04 7,36 8:09 81 Homme
89 NECKEBROECK RONNY 1139 3:32:59 7,32 8:11 82 Homme
90 COBBEN SYLVAIN 1016 3:33:49 7,30 8:13 83 Homme
91 CORFIELD MARION 1017 3:34:03 7,29 8:13 8 Femme
92 FLAGOTHIER CAROLINE 1038 3:37:34 7,17 8:22 9 Femme
93 KOPETZH CHRISTOPHE 1129 3:40:38 7,07 8:29 84 Homme
94 RAVIAT EDDY 1144 3:43:02 6,99 8:34 85 Homme
95 ROODBOL EGBERT 1070 3:43:52 6,97 8:36 86 Homme
96 CLEIRENS MARIO 1015 3:44:25 6,95 8:37 87 Homme
97 LACROIX ASTRID 1054 3:45:16 6,93 8:39 10 Femme
98 SOMJA JEAN-PHILIPPE 1078 3:46:36 6,88 8:42 88 Homme
99 LOUVIGNY YANNICK 1134 3:47:05 6,87 8:44 89 Homme
100 BECCO AURÉLIE 1101 3:47:14 6,87 8:44 11 Femme
101 JUNGBLUTH RAYMOND 1053 3:47:28 6,86 8:44 90 Homme
102 COUNET PIERRE 1021 3:47:57 6,84 8:46 91 Homme
103 GIACCHETTA STÉPHANE 1122 3:48:19 6,83 8:46 92 Homme
104 DELNOOZ XAVIER 1026 3:55:30 6,62 9:03 93 Homme
105 LAGOUNE FRÉDÉRIC 1055 3:56:52 6,59 9:06 94 Homme
106 ROOS HARM DE 1071 3:57:11 6,58 9:07 95 Homme
107 CORRIER CHRISTINE 1018 3:58:30 6,54 9:10 12 Femme
108 DENDAS PETER 1027 3:58:30 6,54 9:10 96 Homme
109 VERLINDEN JEF 1091 4:02:55 6,42 9:20 97 Homme
110 CENGIAROTTI DARIO 1107 4:06:45 6,32 9:29 98 Homme
111 SIMCIC KARMEN 1077 4:09:15 6,26 9:35 13 Femme
112 BURGER JOHN 1011 4:09:34 6,25 9:35 99 Homme
113 SHARMA SHAILEN 1148 4:09:34 6,25 9:35 100 Homme
114 VAN DER KOOIJ JOS 1085 4:09:34 6,25 9:35 101 Homme
115 VERELST BRAM 1089 4:19:33 6,01 9:58 102 Homme
116 NOYONS JURGEN 1064 4:21:00 5,98 10:02 103 Homme
117 PALING MARJOLEIN 1067 4:33:44 5,70 10:31 14 Femme
118 COUDRAY RACHEL 1020 4:42:22 5,52 10:51 15 Femme
119 FARNIER MARGUERITE 1036 4:42:22 5,52 10:51 16 Femme